METEOR-M2 3

Last updated on Wed Aug 19 2026 00:02:41 GMT+0000 (Coordinated Universal Time)

1 57166U 23091A 26230.63179020 -.00000032 00000+0 50610-5 0 9993 2 57166 98.6036 284.3168 0003837 6.8147 353.3084 14.24050988163409
UTC large
Height (km)
Speed (km/s)
/
Latitude / Longitude
Inclination (degrees)
Orbital Period (minutes)
Azimuth
Elevation
Range (km)
Doppler Factor

Next 0 passes for location: London (51.5072 / 0.1276)

No passes found over London.
METEOR-M2 3